Regional Weather Roundup
Issued by NWS Mobile, AL

Home | Current Version | Previous Version | Text Only | Print | Product List | Glossary On
Versions: 1 2 3 4 5 6 7 8 9 10 11 12 13 14 15 16 17 18 19 20 21 22 23 24 25 26 27 28 29 30 31 32 33 34 35 36 37 38 39 40 41 42 43 44 45 46 47 48 49 50
000
ASUS44 KMOB 300716
RWRMOB
REGIONAL WEATHER ROUNDUP
NATIONAL WEATHER SERVICE MOBILE AL
200 AM CDT SAT MAY 30 2015

ALZ061>064-300800-
COASTAL ALABAMA


CITY           SKY/WX    TMP DP  RH WIND       PRES   REMARKS
MOBILE REG APT CLEAR     71  70  96 CALM      30.07F
BROOKLEY FIELD CLEAR     74  70  87 SE5       30.07F
GULF SHORES    SUNNY     68  68  99 CALM      30.06S

$$

ALZ051>060-300800-
INTERIOR SOUTHWEST AND SOUTH CENTRAL ALABAMA


CITY           SKY/WX    TMP DP  RH WIND       PRES   REMARKS
ANDALUSIA/OPP  CLEAR     70  65  84 CALM      30.08F
EVERGREEN      CLEAR     67  66  97 CALM      30.09F FOG
FLORALA        SUNNY     66  64  93 CALM      30.10S
GREENVILLE     FAIR      65  62  90 CALM      30.09F

$$

FLZ001>006-300800-
WESTERN FLORIDA PANHANDLE


CITY           SKY/WX    TMP DP  RH WIND       PRES   REMARKS
CRESTVIEW      CLEAR     65  64  97 CALM      30.09F FOG
DESTIN         CLEAR     73  68  84 CALM      30.06F
DUKE FIELD     FAIR      65  64  95 CALM      30.07S
MARY ESTHER    CLEAR     68  65  89 N2        30.06S
MILTON         SUNNY     70  67  90 NE3       30.07F
PENSACOLA      CLEAR     71  67  87 NE3       30.06F
NAS PENSACOLA  CLEAR     73  69  87 SE9       30.05F
VALPARAISO     CLEAR     69  66  90 N2        30.06F

$$

...MARINE OBSERVATIONS...

STATION/POSITION TIME  SKY/WX   TEMP    WIND        PRES    VSBY
                                AIR SEA DIR/SP/G
                 (UTC)          (F)     (DEG/KT/KT) (MB)    (MI)
PASCAGOULA       0600            79     150/  7/  8 1017.8F
PETIT BOIS ISL   0600            79     140/  8/ 10 1018.3F
E DAUPHIN ISLAND 0700            79     130/  6/  7 1017.5F
MIDDLE BAY LIGHT 0600            79     140/  7     1017.6F
USCG MOBILE BAY  0600            78 82  130/  5/  7 1017.2F
STATE DOCKS      0600            77 78              1018.1F
MEAHER PARK      0700            74     100/  2     1018.0S
FORT MORGAN      0600            79     150/  7/  8 1017.5F
12 S ORANGE BCH  0650            80 80  110/  8/ 12 1017.0F
WVE H/P(F/S)=  3/ 6

PENSACOLA BAY    0600            79 82  140/  1/  5 1018.5F
64 S DAUPHIN ISL 0650            78 80  130/  8/  8 1017.7F
WVE H/P(F/S)=  3/ 6

67 S FORT MORGAN 0630            77     140/ 10     1017.3S
115 SE PENSACOLA 0650            79 81  120/  8/ 10 1017.6F
WVE H/P(F/S)=  3/ 6

MID GULF/42001   0650            80 82  110/ 10/ 12 1016.0F
WVE H/P(F/S)=  3/ 8

EAST GULF/42003  0650            79 81  100/ 10/ 14 1016.3F
WVE H/P(F/S)=  2/ 5


$$

...NEARBY LOCATIONS

CITY           SKY/WX    TMP DP  RH WIND       PRES   REMARKS
GULFPORT       PTCLDY    79  70  74 S7        30.04F
BILOXI         PTCLDY    78  70  76 S8        30.04F
PASCAGOULA     CLEAR     68  67  96 CALM      30.05F FOG
HATTIESBURG    PTCLDY    69  67  93 CALM      30.07S
LAUREL         PTCLDY    70  66  88 CALM      30.08S VSB 1
MERIDIAN       PTCLDY    68  67  96 SW3       30.07F
MERIDIAN NAS   PTCLDY    69  67  93 E6        30.07F
MONTGOMERY     CLEAR     68  64  87 CALM      30.09F
MAXWELL AFB    CLEAR     67  66  96 N1        30.08F
TROY           CLEAR     64  63  96 CALM      30.10F
FORT RUCKER    CLEAR     65  63  93 CALM      30.08S
DALEVILLE      CLEAR     68  66  93 NE3       30.08F
DOTHAN         CLEAR     70  66  87 N3        30.12F

$$

...OTHER SURROUNDING LOCATIONS...

CITY           SKY/WX    TMP DP  RH WIND       PRES   REMARKS
BIRMINGHAM     CLEAR     70  68  93 CALM      30.12S
TUSCALOOSA     CLEAR     71  68  90 CALM      30.08F
COLUMBUS GA    CLEAR     68  61  78 E3        30.11S
PANAMA CITY    NOT AVBL
TALLAHASSEE    CLEAR     73  65  75 E5        30.09S
BATON ROUGE    CLEAR     72  70  93 CALM      30.04S
NEW ORLEANS    PTCLDY    76  70  82 SE3       30.04F
SLIDELL        CLEAR     71  71 100 CALM      30.04F
JACKSON        PTCLDY    72  69  90 S5        30.05F
MCCOMB         PTCLDY    70  69  97 SE5       30.05F

$$

...SURROUNDING MARINE OBSERVATIONS...

STATION/POSITION TIME  SKY/WX   TEMP    WIND        PRES    VSBY
                                AIR SEA DIR/SP/G
                 (UTC)          (F)     (DEG/KT/KT) (MB)    (MI)
WAVELAND         0600            80 81  160/ 12/ 14 1017.6F
PASCAGOULA RGN A 0600            79     140/  7/  8 1017.5F
PASCAGOULA PORT  0600               81                N/A
GRAND ISLE       0600            80 83  140/  5/ 11 1017.3F
SOUTHWEST PASS   0700            80     140/  9/ 10 1016.9F
PILOT STATION E  0600            79 75  140/ 10/ 12 1017.7F
SHELL BEACH      0600            77 83  140/  5/  5 1016.9F
PANAMA CITY      0600            73 82   30/  4/  5 1017.7F
APALACHICOLA     0600            72 80  360/  3/  5 1017.8F
TYNDALL TOWER C  0700            80     110/ 16/ 18 1017.3F
S APLCHCLA/42036 0650            80 81   30/  8/ 12 1017.0F
WVE H/P(F/S)=  2/ 5


$$




USA.gov is the U.S. government's official web portal to all federal, state and local government web resources and services.